| time (UTC) | temp F | wind direction | speed knots | gust knots | rain 1hr in | rain 24hr in | rain mn in | humidity % | barometer mb |
| 20260504042548 | 47 | 237 | 2.6 | 6.1 | 0.00 | 0.00 | 0.00 | 66 | 1005.7 |
| 20260504042048 | 48 | 238 | 3.5 | 6.1 | 0.00 | 0.00 | 0.00 | 65 | 1005.7 |
| 20260504041556 | 48 | 250 | 2.6 | 11.3 | 0.00 | 0.00 | 0.00 | 65 | 1005.8 |
| 20260504041049 | 48 | 196 | 5.2 | 11.3 | 0.00 | 0.00 | 0.00 | 65 | 1005.8 |
| 20260504040549 | 48 | 205 | 2.6 | 9.6 | 0.00 | 0.00 | 0.00 | 65 | 1005.7 |
| 20260504040055 | 48 | 226 | 5.2 | 9.6 | 0.00 | 0.00 | 0.00 | 64 | 1005.7 |
| 20260504035549 | 48 | 208 | 3.5 | 7.8 | 0.00 | 0.00 | 0.00 | 64 | 1005.7 |
| 20260504035049 | 48 | 197 | 3.5 | 9.6 | 0.00 | 0.00 | 0.00 | 63 | 1005.7 |
| 20260504034556 | 48 | 219 | 4.3 | 9.6 | 0.00 | 0.00 | 0.00 | 63 | 1005.7 |
| 20260504034053 | 49 | 250 | 4.3 | 8.7 | 0.00 | 0.00 | 0.00 | 62 | 1005.7 |
| 20260504033549 | 49 | 254 | 4.3 | 8.7 | 0.00 | 0.00 | 0.00 | 62 | 1005.6 |
| 20260504033049 | 49 | 218 | 3.5 | 8.7 | 0.00 | 0.00 | 0.00 | 62 | 1005.7 |
| 20260504032549 | 49 | 238 | 3.5 | 8.7 | 0.00 | 0.00 | 0.00 | 61 | 1005.7 |
| 20260504032049 | 49 | 231 | 3.5 | 8.7 | 0.00 | 0.00 | 0.00 | 61 | 1005.7 |
| 20260504031552 | 49 | 208 | 3.5 | 8.7 | 0.00 | 0.00 | 0.00 | 61 | 1005.8 |
| 20260504031048 | 49 | 200 | 3.5 | 7.0 | 0.00 | 0.00 | 0.00 | 61 | 1005.9 |
| 20260504030552 | 49 | 233 | 3.5 | 7.0 | 0.00 | 0.00 | 0.00 | 61 | 1005.8 |
| 20260504030051 | 49 | 231 | 2.6 | 9.6 | 0.00 | 0.00 | 0.00 | 60 | 1005.9 |
| 20260504025547 | 49 | 257 | 2.6 | 9.6 | 0.00 | 0.00 | 0.00 | 60 | 1005.9 |
| 20260504025048 | 49 | 238 | 4.3 | 12.2 | 0.00 | 0.00 | 0.00 | 60 | 1006.0 |
| 20260504024556 | 49 | 265 | 6.1 | 13.0 | 0.00 | 0.00 | 0.00 | 60 | 1006.1 |
| 20260504024050 | 49 | 281 | 5.2 | 13.0 | 0.00 | 0.00 | 0.00 | 60 | 1006.1 |
| 20260504023548 | 50 | 231 | 4.3 | 10.4 | 0.00 | 0.00 | 0.00 | 59 | 1006.2 |
| 20260504023052 | 50 | 283 | 4.3 | 13.0 | 0.00 | 0.00 | 0.00 | 58 | 1006.2 |
| 20260504022550 | 50 | 236 | 6.1 | 13.0 | 0.00 | 0.00 | 0.00 | 58 | 1006.1 |
| 20260504022049 | 50 | 241 | 2.6 | 9.6 | 0.00 | 0.00 | 0.00 | 57 | 1006.3 |
| 20260504021554 | 50 | 260 | 4.3 | 10.4 | 0.00 | 0.00 | 0.00 | 56 | 1006.4 |
| 20260504021052 | 50 | 239 | 6.1 | 10.4 | 0.00 | 0.00 | 0.00 | 56 | 1006.4 |
| 20260504020552 | 51 | 264 | 5.2 | 13.0 | 0.00 | 0.00 | 0.00 | 55 | 1006.4 |
| 20260504020122 | 51 | 245 | 5.2 | 14.8 | 0.00 | 0.00 | 0.00 | 54 | 1006.2 |
| 20260504015549 | 51 | 207 | 5.2 | 14.8 | 0.00 | 0.00 | 0.00 | 53 | 1006.1 |
| 20260504015048 | 51 | 210 | 6.1 | 14.8 | 0.00 | 0.00 | 0.00 | 52 | 1006.1 |
| 20260504014559 | 51 | 221 | 4.3 | 11.3 | 0.00 | 0.00 | 0.00 | 51 | 1006.1 |
| 20260504014049 | 51 | 213 | 5.2 | 11.3 | 0.00 | 0.00 | 0.00 | 50 | 1005.9 |
| 20260504013548 | 51 | 254 | 6.1 | 11.3 | 0.00 | 0.00 | 0.00 | 49 | 1005.9 |
| 20260504013111 | 51 | 153 | 5.2 | 9.6 | 0.00 | 0.00 | 0.00 | 49 | 1005.9 |
| 20260504012547 | 51 | 249 | 4.3 | 7.8 | 0.00 | 0.00 | 0.00 | 48 | 1005.9 |
| 20260504012049 | 51 | 212 | 2.6 | 7.8 | 0.00 | 0.00 | 0.00 | 47 | 1005.9 |
| 20260504011554 | 51 | 231 | 2.6 | 7.8 | 0.00 | 0.00 | 0.00 | 46 | 1005.8 |
| 20260504011048 | 51 | 212 | 2.6 | 6.1 | 0.00 | 0.00 | 0.00 | 46 | 1005.9 |
| 20260504010548 | 51 | 243 | 3.5 | 6.1 | 0.00 | 0.00 | 0.00 | 45 | 1005.8 |
| 20260504005549 | 52 | 211 | 3.5 | 9.6 | 0.00 | 0.00 | 0.00 | 45 | 1005.8 |
| 20260504005049 | 52 | 257 | 4.3 | 9.6 | 0.00 | 0.00 | 0.00 | 44 | 1005.7 |
| 20260504004626 | 52 | 265 | 2.6 | 6.1 | 0.00 | 0.00 | 0.00 | 44 | 1005.7 |
| 20260504004049 | 52 | 260 | 2.6 | 5.2 | 0.00 | 0.00 | 0.00 | 44 | 1005.6 |
| 20260504003548 | 52 | 271 | 2.6 | 7.8 | 0.00 | 0.00 | 0.00 | 44 | 1005.7 |
| 20260504003051 | 52 | 227 | 2.6 | 9.6 | 0.00 | 0.00 | 0.00 | 45 | 1005.7 |
| 20260504002548 | 52 | 257 | 4.3 | 9.6 | 0.00 | 0.00 | 0.00 | 44 | 1005.7 |
| 20260504002048 | 52 | 284 | 4.3 | 12.2 | 0.00 | 0.00 | 0.00 | 44 | 1005.7 |
| 20260504001555 | 52 | 285 | 4.3 | 13.0 | 0.00 | 0.00 | 0.00 | 44 | 1005.7 |
| 20260504001050 | 53 | 216 | 6.1 | 13.0 | 0.00 | 0.00 | 0.00 | 43 | 1005.7 |
| 20260504000548 | 53 | 257 | 7.8 | 12.2 | 0.00 | 0.00 | 0.00 | 42 | 1005.5 |
| 20260504000106 | 53 | 209 | 5.2 | 12.2 | 0.00 | 0.00 | 0.00 | 40 | 1005.6 |
| 20260503235551 | 53 | 260 | 2.6 | 7.8 | 0.00 | 0.00 | 0.00 | 39 | 1005.5 |
| 20260503235049 | 53 | 236 | 2.6 | 10.4 | 0.00 | 0.00 | 0.00 | 39 | 1005.6 |
| 20260503234549 | 54 | 219 | 3.5 | 12.2 | 0.00 | 0.00 | 0.00 | 38 | 1005.6 |
| 20260503234048 | 54 | 215 | 7.8 | 12.2 | 0.00 | 0.00 | 0.00 | 38 | 1005.6 |
| 20260503233549 | 54 | 244 | 4.3 | 10.4 | 0.00 | 0.00 | 0.00 | 38 | 1005.6 |
| 20260503233052 | 54 | 240 | 5.2 | 10.4 | 0.00 | 0.00 | 0.00 | 38 | 1005.7 |
| 20260503232548 | 54 | 211 | 5.2 | 10.4 | 0.00 | 0.00 | 0.00 | 37 | 1005.6 |
| 20260503232048 | 54 | 229 | 5.2 | 10.4 | 0.00 | 0.00 | 0.00 | 37 | 1005.5 |
| 20260503231556 | 54 | 269 | 4.3 | 10.4 | 0.00 | 0.00 | 0.00 | 36 | 1005.6 |
| 20260503231049 | 54 | 252 | 5.2 | 10.4 | 0.00 | 0.00 | 0.00 | 36 | 1005.5 |
| 20260503230550 | 55 | 258 | 4.3 | 12.2 | 0.00 | 0.00 | 0.00 | 35 | 1005.4 |
| 20260503230052 | 55 | 242 | 5.2 | 12.2 | 0.00 | 0.00 | 0.00 | 35 | 1005.5 |
| 20260503225548 | 55 | 278 | 5.2 | 10.4 | 0.00 | 0.00 | 0.00 | 35 | 1005.5 |
| 20260503225048 | 55 | 248 | 5.2 | 10.4 | 0.00 | 0.00 | 0.00 | 35 | 1005.5 |
| 20260503224558 | 55 | 308 | 2.6 | 10.4 | 0.00 | 0.00 | 0.00 | 34 | 1005.5 |
| 20260503224048 | 55 | 189 | 4.3 | 9.6 | 0.00 | 0.00 | 0.00 | 33 | 1005.4 |
| 20260503223547 | 56 | 245 | 6.1 | 9.6 | 0.00 | 0.00 | 0.00 | 32 | 1005.5 |
| 20260503223054 | 56 | 283 | 4.3 | 9.6 | 0.00 | 0.00 | 0.00 | 32 | 1005.5 |
| 20260503222548 | 56 | 232 | 4.3 | 9.6 | 0.00 | 0.00 | 0.00 | 31 | 1005.5 |
| 20260503222051 | 56 | 254 | 3.5 | 10.4 | 0.00 | 0.00 | 0.00 | 31 | 1005.4 |
| 20260503221601 | 56 | 288 | 5.2 | 10.4 | 0.00 | 0.00 | 0.00 | 30 | 1005.5 |
| 20260503221053 | 56 | 256 | 7.0 | 10.4 | 0.00 | 0.00 | 0.00 | 29 | 1005.5 |
| 20260503220549 | 56 | 281 | 5.2 | 10.4 | 0.00 | 0.00 | 0.00 | 30 | 1005.5 |
| 20260503220055 | 56 | 271 | 5.2 | 13.0 | 0.00 | 0.00 | 0.00 | 29 | 1005.5 |
| 20260503215548 | 57 | 227 | 7.0 | 13.0 | 0.00 | 0.00 | 0.00 | 27 | 1005.5 |
| 20260503215048 | 56 | 231 | 4.3 | 10.4 | 0.00 | 0.00 | 0.00 | 28 | 1005.4 |
| 20260503214551 | 57 | 249 | 5.2 | 10.4 | 0.00 | 0.00 | 0.00 | 27 | 1005.4 |
| 20260503214144 | 57 | 288 | 5.2 | 12.2 | 0.00 | 0.00 | 0.00 | 28 | 1005.6 |
| 20260503213551 | 57 | 291 | 5.2 | 13.9 | 0.00 | 0.00 | 0.00 | 28 | 1005.4 |
| 20260503213054 | 57 | 289 | 8.7 | 13.9 | 0.00 | 0.00 | 0.00 | 27 | 1005.5 |
| 20260503212550 | 57 | 303 | 7.8 | 13.9 | 0.00 | 0.00 | 0.00 | 28 | 1005.6 |
| 20260503212049 | 57 | 273 | 4.3 | 8.7 | 0.00 | 0.00 | 0.00 | 28 | 1005.4 |
| 20260503211556 | 56 | 257 | 2.6 | 13.0 | 0.00 | 0.00 | 0.00 | 29 | 1005.4 |
| 20260503211053 | 55 | 280 | 4.3 | 13.9 | 0.00 | 0.00 | 0.00 | 30 | 1005.5 |
| 20260503210550 | 55 | 248 | 7.8 | 13.9 | 0.00 | 0.00 | 0.00 | 29 | 1005.6 |
| 20260503210053 | 57 | 246 | 4.3 | 12.2 | 0.00 | 0.00 | 0.00 | 30 | 1005.6 |
| 20260503205550 | 57 | 263 | 7.0 | 13.9 | 0.00 | 0.00 | 0.00 | 29 | 1005.6 |
| 20260503205051 | 56 | 217 | 7.0 | 13.9 | 0.00 | 0.00 | 0.00 | 28 | 1005.5 |
| 20260503204619 | 55 | 152 | 4.3 | 13.0 | 0.00 | 0.00 | 0.00 | 29 | 1005.6 |
| 20260503204050 | 55 | 261 | 5.2 | 13.0 | 0.00 | 0.00 | 0.00 | 29 | 1005.6 |
| 20260503203549 | 56 | 264 | 7.0 | 13.0 | 0.00 | 0.00 | 0.00 | 29 | 1005.8 |
| 20260503203100 | 56 | 253 | 6.1 | 15.6 | 0.00 | 0.00 | 0.00 | 28 | 1005.7 |
| 20260503202553 | 56 | 271 | 7.0 | 15.6 | 0.00 | 0.00 | 0.00 | 29 | 1005.8 |
| 20260503202050 | 56 | 199 | 7.8 | 15.6 | 0.00 | 0.00 | 0.00 | 29 | 1005.8 |
| 20260503201552 | 56 | 247 | 4.3 | 15.6 | 0.00 | 0.00 | 0.00 | 29 | 1005.9 |
| 20260503201048 | 56 | 264 | 7.8 | 14.8 | 0.00 | 0.00 | 0.00 | 29 | 1006.0 |
| 20260503200548 | 55 | 284 | 7.0 | 14.8 | 0.00 | 0.00 | 0.00 | 30 | 1005.9 |
| 20260503200054 | 55 | 276 | 4.3 | 20.0 | 0.00 | 0.00 | 0.00 | 30 | 1006.0 |
| 20260503195547 | 55 | 258 | 9.6 | 20.0 | 0.00 | 0.00 | 0.00 | 29 | 1006.3 |
| 20260503195048 | 56 | 185 | 7.0 | 13.9 | 0.00 | 0.00 | 0.00 | 28 | 1006.2 |
| 20260503194555 | 56 | 257 | 7.0 | 13.9 | 0.00 | 0.00 | 0.00 | 28 | 1006.2 |
| 20260503194048 | 55 | 252 | 8.7 | 15.6 | 0.00 | 0.00 | 0.00 | 29 | 1006.5 |
| 20260503193548 | 55 | 257 | 4.3 | 17.4 | 0.00 | 0.00 | 0.00 | 30 | 1006.4 |
| 20260503193110 | 54 | 264 | 9.6 | 17.4 | 0.00 | 0.00 | 0.00 | 31 | 1006.7 |
| 20260503192547 | 55 | 200 | 4.3 | 15.6 | 0.00 | 0.00 | 0.00 | 34 | 1006.7 |
| 20260503192048 | 53 | 273 | 7.0 | 15.6 | 0.00 | 0.00 | 0.00 | 31 | 1006.9 |
| 20260503191610 | 53 | 110 | 5.2 | 13.0 | 0.00 | 0.00 | 0.00 | 31 | 1007.0 |
| 20260503191048 | 53 | 274 | 6.1 | 16.5 | 0.00 | 0.00 | 0.00 | 30 | 1007.1 |
| 20260503190548 | 54 | 278 | 7.8 | 16.5 | 0.00 | 0.00 | 0.00 | 30 | 1007.3 |
| 20260503190058 | 55 | 262 | 8.7 | 16.5 | 0.00 | 0.00 | 0.00 | 29 | 1007.1 |
| 20260503185549 | 55 | 234 | 5.2 | 16.5 | 0.00 | 0.00 | 0.00 | 31 | 1007.2 |
| 20260503185048 | 55 | 225 | 6.1 | 16.5 | 0.00 | 0.00 | 0.00 | 31 | 1007.2 |
| 20260503184553 | 54 | 238 | 5.2 | 14.8 | 0.00 | 0.00 | 0.00 | 30 | 1007.3 |
| 20260503184050 | 54 | 239 | 7.8 | 14.8 | 0.00 | 0.00 | 0.00 | 30 | 1007.3 |
| 20260503183549 | 53 | 240 | 7.0 | 14.8 | 0.00 | 0.00 | 0.00 | 32 | 1007.4 |
| 20260503183055 | 54 | 245 | 6.1 | 13.0 | 0.00 | 0.00 | 0.00 | 31 | 1007.6 |
| 20260503182547 | 54 | 305 | 7.0 | 12.2 | 0.00 | 0.00 | 0.00 | 32 | 1007.5 |
| 20260503182050 | 54 | 293 | 4.3 | 11.3 | 0.00 | 0.00 | 0.00 | 33 | 1007.5 |
| 20260503181554 | 53 | 212 | 6.1 | 13.9 | 0.00 | 0.00 | 0.00 | 31 | 1007.7 |
| 20260503181048 | 54 | 245 | 7.0 | 13.9 | 0.00 | 0.00 | 0.00 | 31 | 1007.7 |
| 20260503180550 | 54 | 250 | 6.1 | 12.2 | 0.00 | 0.00 | 0.00 | 33 | 1007.7 |
| 20260503180059 | 53 | 219 | 4.3 | 13.0 | 0.00 | 0.00 | 0.00 | 34 | 1007.8 |
| 20260503175549 | 52 | 222 | 7.0 | 17.4 | 0.00 | 0.00 | 0.00 | 33 | 1008.0 |
| 20260503175048 | 53 | 238 | 7.8 | 17.4 | 0.00 | 0.00 | 0.00 | 33 | 1008.1 |
| 20260503174556 | 53 | 246 | 7.8 | 17.4 | 0.00 | 0.00 | 0.00 | 32 | 1008.1 |
| 20260503174048 | 53 | 227 | 7.0 | 13.9 | 0.00 | 0.00 | 0.00 | 32 | 1008.2 |
| 20260503173548 | 52 | 269 | 6.1 | 14.8 | 0.00 | 0.00 | 0.00 | 34 | 1008.2 |
| 20260503173051 | 52 | 197 | 7.0 | 14.8 | 0.00 | 0.00 | 0.00 | 34 | 1008.3 |
| 20260503172547 | 52 | 268 | 4.3 | 13.9 | 0.00 | 0.00 | 0.00 | 34 | 1008.4 |
| 20260503172048 | 53 | 254 | 7.0 | 13.9 | 0.00 | 0.00 | 0.00 | 33 | 1008.6 |
| 20260503171553 | 52 | 245 | 4.3 | 13.0 | 0.00 | 0.00 | 0.00 | 37 | 1008.6 |
| 20260503171048 | 52 | 216 | 5.2 | 13.0 | 0.00 | 0.00 | 0.00 | 35 | 1008.7 |
| 20260503170548 | 52 | 151 | 5.2 | 14.8 | 0.00 | 0.00 | 0.00 | 33 | 1008.6 |
| 20260503170106 | 52 | 194 | 6.1 | 14.8 | 0.00 | 0.00 | 0.00 | 35 | 1008.9 |
| 20260503160108 | 49 | 278 | 6.1 | 11.3 | 0.00 | 0.00 | 0.00 | 37 | 1009.7 |
| 20260503150549 | 48 | 297 | 4.3 | 10.4 | 0.00 | 0.00 | 0.00 | 41 | 1010.3 |
| 20260503131050 | 43 | 290 | 3.5 | 7.8 | 0.00 | 0.00 | 0.00 | 57 | 1011.4 |
| 20260503130551 | 43 | 286 | 3.5 | 7.0 | 0.00 | 0.00 | 0.00 | 57 | 1011.5 |
| 20260503110546 | 36 | 243 | 0.9 | 1.7 | 0.00 | 0.00 | 0.00 | 73 | 1011.3 |
| 20260503081554 | 38 | 254 | 0.0 | 0.9 | 0.00 | 0.00 | 0.00 | 69 | 1011.3 |
| 20260503081048 | 38 | 240 | 0.9 | 1.7 | 0.00 | 0.00 | 0.00 | 69 | 1011.3 |
| 20260503080551 | 38 | 255 | 0.9 | 1.7 | 0.00 | 0.00 | 0.00 | 69 | 1011.3 |
| 20260503072548 | 38 | 280 | 0.9 | 3.5 | 0.00 | 0.00 | 0.00 | 67 | 1011.5 |
| 20260503072048 | 38 | 268 | 1.7 | 3.5 | 0.00 | 0.00 | 0.00 | 67 | 1011.4 |
| 20260503071611 | 38 | 260 | 0.9 | 2.6 | 0.00 | 0.00 | 0.00 | 67 | 1011.5 |
| 20260503071048 | 38 | 275 | 0.9 | 1.7 | 0.00 | 0.00 | 0.00 | 67 | 1011.4 |
| 20260503070548 | 38 | 262 | 0.9 | 1.7 | 0.00 | 0.00 | 0.00 | 67 | 1011.4 |
| 20260503055048 | 39 | 253 | 0.9 | 3.5 | 0.00 | 0.00 | 0.00 | 66 | 1011.9 |
| 20260503054609 | 39 | 269 | 0.9 | 3.5 | 0.00 | 0.00 | 0.00 | 66 | 1011.8 |
| 20260503054052 | 39 | 256 | 0.9 | 2.6 | 0.00 | 0.00 | 0.00 | 65 | 1011.9 |
| 20260503053549 | 39 | 246 | 0.9 | 2.6 | 0.00 | 0.00 | 0.00 | 65 | 1011.8 |
| 20260503053058 | 39 | 255 | 0.9 | 2.6 | 0.00 | 0.00 | 0.00 | 65 | 1011.9 |
| 20260503052548 | 39 | 283 | 0.9 | 2.6 | 0.00 | 0.00 | 0.00 | 65 | 1011.9 |
| 20260503052051 | 39 | 248 | 0.9 | 2.6 | 0.00 | 0.00 | 0.00 | 65 | 1012.0 |
| 20260503051552 | 39 | 246 | 0.9 | 2.6 | 0.00 | 0.00 | 0.00 | 66 | 1012.0 |
| 20260503051048 | 39 | 245 | 0.9 | 2.6 | 0.00 | 0.00 | 0.00 | 66 | 1012.0 |
| 20260503050548 | 39 | 252 | 0.9 | 2.6 | 0.00 | 0.00 | 0.00 | 66 | 1012.0 |
| 20260503050058 | 39 | 248 | 0.9 | 2.6 | 0.00 | 0.00 | 0.00 | 66 | 1012.1 |
| 20260503045548 | 39 | 259 | 1.7 | 2.6 | 0.00 | 0.00 | 0.00 | 66 | 1012.1 |
| 20260503045047 | 39 | 252 | 0.9 | 2.6 | 0.00 | 0.00 | 0.00 | 65 | 1012.2 |
| 20260503044554 | 39 | 270 | 0.9 | 2.6 | 0.00 | 0.00 | 0.00 | 66 | 1012.2 |
| 20260503044048 | 39 | 267 | 0.9 | 2.6 | 0.00 | 0.00 | 0.00 | 66 | 1012.2 |
| 20260503043548 | 39 | 277 | 0.9 | 2.6 | 0.00 | 0.00 | 0.00 | 66 | 1012.2 |
| 20260503043058 | 39 | 282 | 0.9 | 1.7 | 0.00 | 0.00 | 0.00 | 67 | 1012.2 |